Retour au catalogue

WESTFORD NEEDLES

ActifPO
NORAD 2361·DEBRIS·🇺🇸 United States

Lancé May 9, 1963 depuis Vandenberg Space Force Base

Loading…

Prochains Passages (prochaines 24 heures)

TLE

FraisSource: Space-Track

Époque: Sep 12, 2026, 18:30 UTC

1 02361U 63014L   26255.77137693  .00000050  00000-0  21412-1 0  9995
2 02361  87.3823 172.6046 0147813 159.5477 201.1377  8.66282592  2396

Suivez WESTFORD NEEDLES en temps réel avec AllMySat

Download on the App Store